Time,TemperatureF,DewpointF,PressureIn,WindDirection,WindDirectionDegrees,WindSpeedMPH,WindSpeedGustMPH,Humidity,HourlyPrecipIn,Conditions,Clouds,dailyrainin,SoftwareType,DateUTC
2013-04-02 00:00:00,57.8,48.1,30.10,West,275,3.0,17.0,70,0.00,,,0.00,Weather View 32 v70,2013-04-02 07:00:00,
2013-04-02 00:05:00,57.8,48.1,30.09,SW,231,3.0,17.0,70,0.00,,,0.00,Weather View 32 v70,2013-04-02 07:05:00,
2013-04-02 00:10:00,57.8,48.1,30.10,WSW,242,11.0,17.0,70,0.00,,,0.00,Weather View 32 v70,2013-04-02 07:10:00,
2013-04-02 00:15:00,57.6,47.9,30.10,West,261,0.0,19.0,70,0.00,,,0.00,Weather View 32 v70,2013-04-02 07:15:00,
2013-04-02 00:20:00,57.6,47.9,30.09,SSE,167,5.0,19.0,70,0.00,,,0.00,Weather View 32 v70,2013-04-02 07:20:00,
2013-04-02 00:25:00,57.5,47.8,30.10,SW,236,5.0,19.0,70,0.00,,,0.00,Weather View 32 v70,2013-04-02 07:25:00,
2013-04-02 00:30:00,57.5,47.8,30.10,WSW,250,6.0,19.0,70,0.00,,,0.00,Weather View 32 v70,2013-04-02 07:30:00,
2013-04-02 00:35:00,57.3,47.6,30.10,West,271,6.0,19.0,70,0.00,,,0.00,Weather View 32 v70,2013-04-02 07:35:00,
2013-04-02 00:40:00,57.3,47.6,30.10,West,277,1.0,19.0,70,0.00,,,0.00,Weather View 32 v70,2013-04-02 07:40:00,
2013-04-02 00:45:00,57.3,47.2,30.10,WSW,240,12.0,19.0,69,0.00,,,0.00,Weather View 32 v70,2013-04-02 07:45:00,
2013-04-02 00:50:00,57.5,47.4,30.11,West,263,1.0,19.0,69,0.00,,,0.00,Weather View 32 v70,2013-04-02 07:50:00,
2013-04-02 00:55:00,57.3,47.2,30.11,WSW,243,3.0,19.0,69,0.00,,,0.00,Weather View 32 v70,2013-04-02 07:55:00,
2013-04-02 01:00:00,57.0,47.3,30.11,North,0,6.0,19.0,70,0.00,,,0.00,Weather View 32 v70,2013-04-02 08:00:00,
2013-04-02 01:05:00,56.9,47.6,30.11,West,263,2.0,19.0,71,0.00,,,0.00,Weather View 32 v70,2013-04-02 08:05:00,
2013-04-02 01:10:00,56.7,47.4,30.11,SW,232,3.0,19.0,71,0.00,,,0.00,Weather View 32 v70,2013-04-02 08:10:00,
2013-04-02 01:15:00,56.7,47.4,30.11,West,277,6.0,19.0,71,0.00,,,0.00,Weather View 32 v70,2013-04-02 08:15:00,
2013-04-02 01:20:00,56.7,47.4,30.11,West,276,2.0,19.0,71,0.00,,,0.00,Weather View 32 v70,2013-04-02 08:20:00,
2013-04-02 01:25:00,56.7,47.4,30.12,WSW,253,3.0,19.0,71,0.00,,,0.00,Weather View 32 v70,2013-04-02 08:25:00,
2013-04-02 01:30:00,56.6,47.3,30.12,West,266,6.0,19.0,71,0.00,,,0.00,Weather View 32 v70,2013-04-02 08:30:00,
2013-04-02 01:35:00,56.6,47.3,30.12,West,271,2.0,19.0,71,0.00,,,0.00,Weather View 32 v70,2013-04-02 08:35:00,
2013-04-02 01:40:00,56.5,47.6,30.12,West,279,3.0,19.0,72,0.00,,,0.00,Weather View 32 v70,2013-04-02 08:40:00,
2013-04-02 01:45:00,56.3,47.4,30.12,West,259,2.0,19.0,72,0.00,,,0.00,Weather View 32 v70,2013-04-02 08:45:00,
2013-04-02 01:50:00,56.3,47.4,30.12,West,259,4.0,18.0,72,0.00,,,0.00,Weather View 32 v70,2013-04-02 08:50:00,
2013-04-02 01:55:00,56.3,47.4,30.12,WSW,258,5.0,16.0,72,0.00,,,0.00,Weather View 32 v70,2013-04-02 08:55:00,
2013-04-02 02:00:00,56.3,47.4,30.12,WSW,244,6.0,16.0,72,0.00,,,0.00,Weather View 32 v70,2013-04-02 09:00:00,
2013-04-02 02:05:00,56.3,47.4,30.12,WSW,248,7.0,16.0,72,0.00,,,0.00,Weather View 32 v70,2013-04-02 09:05:00,
2013-04-02 02:10:00,56.2,47.3,30.12,WSW,239,7.0,16.0,72,0.00,,,0.00,Weather View 32 v70,2013-04-02 09:10:00,
2013-04-02 02:14:00,56.2,47.3,30.12,WSW,258,4.0,16.0,72,0.00,,,0.00,Weather View 32 v70,2013-04-02 09:14:00,
2013-04-02 02:20:00,56.0,47.1,30.12,West,275,5.0,16.0,72,0.00,,,0.00,Weather View 32 v70,2013-04-02 09:20:00,
2013-04-02 02:24:00,56.0,47.1,30.12,SW,219,2.0,16.0,72,0.00,,,0.00,Weather View 32 v70,2013-04-02 09:24:00,
2013-04-02 02:30:00,56.0,47.1,30.12,WSW,254,3.0,16.0,72,0.00,,,0.00,Weather View 32 v70,2013-04-02 09:30:00,
2013-04-02 02:34:00,56.2,47.3,30.12,West,273,4.0,16.0,72,0.00,,,0.00,Weather View 32 v70,2013-04-02 09:34:00,
2013-04-02 02:39:00,56.0,47.1,30.12,West,271,6.0,16.0,72,0.00,,,0.00,Weather View 32 v70,2013-04-02 09:39:00,
2013-04-02 02:44:00,56.0,47.1,30.12,WNW,298,7.0,16.0,72,0.00,,,0.00,Weather View 32 v70,2013-04-02 09:44:00,
2013-04-02 02:49:00,56.0,47.1,30.12,West,259,4.0,16.0,72,0.00,,,0.00,Weather View 32 v70,2013-04-02 09:49:00,
2013-04-02 02:54:00,55.9,47.0,30.12,WSW,244,2.0,16.0,72,0.00,,,0.00,Weather View 32 v70,2013-04-02 09:54:00,
2013-04-02 02:59:00,55.9,47.0,30.12,West,266,2.0,16.0,72,0.00,,,0.00,Weather View 32 v70,2013-04-02 09:59:00,
2013-04-02 03:04:00,55.7,47.2,30.13,West,261,8.0,16.0,73,0.00,,,0.00,Weather View 32 v70,2013-04-02 10:04:00,
2013-04-02 03:09:00,55.6,47.1,30.13,WNW,294,4.0,16.0,73,0.00,,,0.00,Weather View 32 v70,2013-04-02 10:09:00,
2013-04-02 03:14:00,55.6,47.1,30.13,WSW,240,4.0,16.0,73,0.00,,,0.00,Weather View 32 v70,2013-04-02 10:14:00,
2013-04-02 03:19:00,55.4,46.9,30.13,West,279,3.0,16.0,73,0.00,,,0.00,Weather View 32 v70,2013-04-02 10:19:00,
2013-04-02 03:24:00,55.4,46.9,30.13,West,266,5.0,16.0,73,0.00,,,0.00,Weather View 32 v70,2013-04-02 10:24:00,
2013-04-02 03:29:00,55.4,46.5,30.13,WSW,248,2.0,16.0,72,0.00,,,0.00,Weather View 32 v70,2013-04-02 10:29:00,
2013-04-02 03:34:00,55.4,46.9,30.13,West,277,8.0,16.0,73,0.00,,,0.00,Weather View 32 v70,2013-04-02 10:34:00,
2013-04-02 03:39:00,55.3,48.2,30.13,WSW,251,4.0,16.0,77,0.00,,,0.00,Weather View 32 v70,2013-04-02 10:39:00,
2013-04-02 03:44:00,55.3,46.8,30.13,WSW,257,8.0,16.0,73,0.00,,,0.00,Weather View 32 v70,2013-04-02 10:44:00,
2013-04-02 03:49:00,55.1,46.6,30.13,WSW,248,6.0,14.0,73,0.00,,,0.00,Weather View 32 v70,2013-04-02 10:49:00,
2013-04-02 03:54:00,55.1,46.6,30.13,SSW,210,5.0,15.0,73,0.00,,,0.00,Weather View 32 v70,2013-04-02 10:54:00,
2013-04-02 03:59:00,55.1,46.6,30.13,WSW,247,2.0,15.0,73,0.00,,,0.00,Weather View 32 v70,2013-04-02 10:59:00,
2013-04-02 04:04:00,55.0,46.5,30.13,WSW,241,6.0,15.0,73,0.00,,,0.00,Weather View 32 v70,2013-04-02 11:04:00,
2013-04-02 04:09:00,55.0,46.5,30.13,WNW,284,7.0,15.0,73,0.00,,,0.00,Weather View 32 v70,2013-04-02 11:09:00,
2013-04-02 04:14:00,54.8,46.3,30.13,SSW,202,5.0,15.0,73,0.00,,,0.00,Weather View 32 v70,2013-04-02 11:14:00,
2013-04-02 04:19:00,54.8,46.3,30.13,West,264,7.0,15.0,73,0.00,,,0.00,Weather View 32 v70,2013-04-02 11:19:00,
2013-04-02 04:24:00,54.8,46.3,30.13,WSW,252,3.0,15.0,73,0.00,,,0.00,Weather View 32 v70,2013-04-02 11:24:00,
2013-04-02 04:29:00,54.7,46.2,30.13,SW,220,2.0,15.0,73,0.00,,,0.00,Weather View 32 v70,2013-04-02 11:29:00,
2013-04-02 04:34:00,54.5,46.0,30.13,WSW,257,5.0,15.0,73,0.00,,,0.00,Weather View 32 v70,2013-04-02 11:34:00,
2013-04-02 04:39:00,54.5,46.0,30.13,WSW,250,6.0,15.0,73,0.00,,,0.00,Weather View 32 v70,2013-04-02 11:39:00,
2013-04-02 04:44:00,54.4,45.9,30.13,SW,227,7.0,15.0,73,0.00,,,0.00,Weather View 32 v70,2013-04-02 11:44:00,
2013-04-02 04:49:00,54.4,45.9,30.13,SSW,207,4.0,15.0,73,0.00,,,0.00,Weather View 32 v70,2013-04-02 11:49:00,
2013-04-02 04:54:00,54.4,45.9,30.13,West,277,11.0,15.0,73,0.00,,,0.00,Weather View 32 v70,2013-04-02 11:54:00,
2013-04-02 04:59:00,54.4,45.9,30.13,WSW,254,6.0,15.0,73,0.00,,,0.00,Weather View 32 v70,2013-04-02 11:59:00,
2013-04-02 05:04:00,54.4,45.9,30.13,WNW,288,3.0,15.0,73,0.00,,,0.00,Weather View 32 v70,2013-04-02 12:04:00,
2013-04-02 05:09:00,54.4,45.9,30.13,WSW,254,7.0,15.0,73,0.00,,,0.00,Weather View 32 v70,2013-04-02 12:09:00,
2013-04-02 05:14:00,54.4,45.9,30.13,WSW,247,3.0,15.0,73,0.00,,,0.00,Weather View 32 v70,2013-04-02 12:14:00,
2013-04-02 05:19:00,54.4,45.9,30.13,West,269,3.0,15.0,73,0.00,,,0.00,Weather View 32 v70,2013-04-02 12:19:00,
2013-04-02 05:24:00,54.4,45.9,30.13,WSW,254,5.0,15.0,73,0.00,,,0.00,Weather View 32 v70,2013-04-02 12:24:00,
2013-04-02 05:29:00,54.4,45.9,30.13,West,269,4.0,15.0,73,0.00,,,0.00,Weather View 32 v70,2013-04-02 12:29:00,
2013-04-02 05:34:00,54.4,45.9,30.14,WSW,238,3.0,13.0,73,0.00,,,0.00,Weather View 32 v70,2013-04-02 12:34:00,
2013-04-02 05:39:00,54.2,45.7,30.13,WNW,295,5.0,13.0,73,0.00,,,0.00,Weather View 32 v70,2013-04-02 12:39:00,
2013-04-02 05:44:00,54.2,46.1,30.14,WSW,244,1.0,13.0,74,0.00,,,0.00,Weather View 32 v70,2013-04-02 12:44:00,
2013-04-02 05:49:00,54.2,46.1,30.14,West,280,3.0,13.0,74,0.00,,,0.00,Weather View 32 v70,2013-04-02 12:49:00,
2013-04-02 05:54:00,54.1,46.0,30.13,WSW,239,3.0,13.0,74,0.00,,,0.00,Weather View 32 v70,2013-04-02 12:54:00,
2013-04-02 05:59:00,53.9,46.1,30.14,WSW,258,3.0,12.0,75,0.00,,,0.00,Weather View 32 v70,2013-04-02 12:59:00,
2013-04-02 06:04:00,53.9,46.1,30.13,WSW,238,0.0,14.0,75,0.00,,,0.00,Weather View 32 v70,2013-04-02 13:04:00,
2013-04-02 06:09:00,53.8,46.4,30.14,WSW,248,8.0,18.0,76,0.00,,,0.00,Weather View 32 v70,2013-04-02 13:09:00,
2013-04-02 06:14:00,53.6,46.2,30.14,SW,216,2.0,18.0,76,0.00,,,0.00,Weather View 32 v70,2013-04-02 13:14:00,
2013-04-02 06:19:00,53.5,46.1,30.14,West,266,2.0,18.0,76,0.00,,,0.00,Weather View 32 v70,2013-04-02 13:19:00,
2013-04-02 06:24:00,53.5,46.1,30.14,WSW,256,3.0,18.0,76,0.00,,,0.00,Weather View 32 v70,2013-04-02 13:24:00,
2013-04-02 06:29:00,53.5,46.1,30.14,West,263,4.0,18.0,76,0.00,,,0.00,Weather View 32 v70,2013-04-02 13:29:00,
2013-04-02 06:34:00,53.6,46.2,30.14,SW,229,5.0,18.0,76,0.00,,,0.00,Weather View 32 v70,2013-04-02 13:34:00,
2013-04-02 06:39:00,53.6,45.9,30.14,West,267,3.0,18.0,75,0.00,,,0.00,Weather View 32 v70,2013-04-02 13:39:00,
2013-04-02 06:44:00,53.6,46.2,30.14,WSW,252,3.0,18.0,76,0.00,,,0.00,Weather View 32 v70,2013-04-02 13:44:00,
2013-04-02 06:49:00,53.6,46.2,30.14,WNW,284,5.0,18.0,76,0.00,,,0.00,Weather View 32 v70,2013-04-02 13:49:00,
2013-04-02 06:54:00,53.5,46.1,30.14,West,269,2.0,18.0,76,0.00,,,0.00,Weather View 32 v70,2013-04-02 13:54:00,
2013-04-02 06:59:00,53.5,46.1,30.14,WSW,251,4.0,18.0,76,0.00,,,0.00,Weather View 32 v70,2013-04-02 13:59:00,
2013-04-02 07:04:00,53.5,46.1,30.14,West,276,5.0,18.0,76,0.00,,,0.00,Weather View 32 v70,2013-04-02 14:04:00,
2013-04-02 07:09:00,53.3,46.3,30.14,WSW,258,5.0,14.0,77,0.00,,,0.00,Weather View 32 v70,2013-04-02 14:09:00,
2013-04-02 07:14:00,53.2,46.2,30.14,SW,234,8.0,12.0,77,0.00,,,0.00,Weather View 32 v70,2013-04-02 14:14:00,
2013-04-02 07:19:00,53.2,46.2,30.15,West,267,6.0,14.0,77,0.00,,,0.00,Weather View 32 v70,2013-04-02 14:19:00,
2013-04-02 07:24:00,53.1,46.4,30.15,West,262,6.0,14.0,78,0.00,,,0.00,Weather View 32 v70,2013-04-02 14:24:00,
2013-04-02 07:29:00,53.1,46.4,30.15,West,269,2.0,14.0,78,0.00,,,0.00,Weather View 32 v70,2013-04-02 14:29:00,
2013-04-02 07:34:00,52.9,46.2,30.15,West,273,3.0,14.0,78,0.00,,,0.00,Weather View 32 v70,2013-04-02 14:34:00,
2013-04-02 07:39:00,52.9,46.2,30.15,West,271,5.0,14.0,78,0.00,,,0.00,Weather View 32 v70,2013-04-02 14:39:00,
2013-04-02 07:44:00,52.8,46.5,30.15,West,269,1.0,14.0,79,0.00,,,0.00,Weather View 32 v70,2013-04-02 14:44:00,
2013-04-02 07:49:00,52.9,46.2,30.15,West,265,2.0,14.0,78,0.00,,,0.00,Weather View 32 v70,2013-04-02 14:49:00,
2013-04-02 07:54:00,52.9,46.2,30.15,WSW,251,6.0,14.0,78,0.00,,,0.00,Weather View 32 v70,2013-04-02 14:54:00,
2013-04-02 07:59:00,52.9,46.2,30.15,WSW,247,7.0,14.0,78,0.00,,,0.00,Weather View 32 v70,2013-04-02 14:59:00,
2013-04-02 08:04:00,52.9,45.9,30.15,West,267,4.0,14.0,77,0.00,,,0.00,Weather View 32 v70,2013-04-02 15:04:00,
2013-04-02 08:09:00,53.1,46.1,30.16,WSW,253,6.0,14.0,77,0.00,,,0.00,Weather View 32 v70,2013-04-02 15:09:00,
2013-04-02 08:15:00,53.1,46.1,30.16,SW,232,7.0,14.0,77,0.00,,,0.00,Weather View 32 v70,2013-04-02 15:15:00,
2013-04-02 08:20:00,53.1,46.1,30.16,WSW,246,8.0,14.0,77,0.00,,,0.00,Weather View 32 v70,2013-04-02 15:20:00,
2013-04-02 08:25:00,53.1,46.1,30.16,WSW,250,5.0,14.0,77,0.00,,,0.00,Weather View 32 v70,2013-04-02 15:25:00,
2013-04-02 08:30:00,53.1,46.1,30.16,WSW,246,3.0,16.0,77,0.00,,,0.00,Weather View 32 v70,2013-04-02 15:30:00,
2013-04-02 08:35:00,53.1,46.1,30.16,West,279,3.0,16.0,77,0.00,,,0.00,Weather View 32 v70,2013-04-02 15:35:00,
2013-04-02 08:40:00,53.1,46.1,30.16,West,261,2.0,16.0,77,0.00,,,0.00,Weather View 32 v70,2013-04-02 15:40:00,
2013-04-02 08:45:00,53.1,46.1,30.16,WSW,237,4.0,16.0,77,0.00,,,0.00,Weather View 32 v70,2013-04-02 15:45:00,
2013-04-02 08:50:00,53.2,46.2,30.16,WSW,247,4.0,16.0,77,0.00,,,0.00,Weather View 32 v70,2013-04-02 15:50:00,
2013-04-02 08:55:00,53.3,46.3,30.16,WSW,256,11.0,16.0,77,0.00,,,0.00,Weather View 32 v70,2013-04-02 15:55:00,
2013-04-02 09:00:00,53.6,46.2,30.16,WNW,288,4.0,16.0,76,0.00,,,0.00,Weather View 32 v70,2013-04-02 16:00:00,
2013-04-02 09:05:00,53.8,46.0,30.16,WSW,246,13.0,16.0,75,0.00,,,0.00,Weather View 32 v70,2013-04-02 16:05:00,
2013-04-02 09:10:00,53.8,46.0,30.16,WNW,287,10.0,16.0,75,0.00,,,0.00,Weather View 32 v70,2013-04-02 16:10:00,
2013-04-02 09:15:00,53.8,46.0,30.16,West,264,6.0,16.0,75,0.00,,,0.00,Weather View 32 v70,2013-04-02 16:15:00,
2013-04-02 09:20:00,53.9,46.1,30.16,West,271,3.0,16.0,75,0.00,,,0.00,Weather View 32 v70,2013-04-02 16:20:00,
2013-04-02 09:25:00,54.2,46.1,30.16,SW,223,8.0,16.0,74,0.00,,,0.00,Weather View 32 v70,2013-04-02 16:25:00,
2013-04-02 09:30:00,54.2,45.7,30.16,West,273,2.0,17.0,73,0.00,,,0.00,Weather View 32 v70,2013-04-02 16:30:00,
2013-04-02 09:36:00,54.4,46.3,30.16,WSW,257,7.0,17.0,74,0.00,,,0.00,Weather View 32 v70,2013-04-02 16:36:00,
2013-04-02 09:42:00,54.8,46.3,30.16,West,273,6.0,17.0,73,0.00,,,0.00,Weather View 32 v70,2013-04-02 16:42:00,
2013-04-02 09:47:00,55.0,46.1,30.16,WNW,284,2.0,17.0,72,0.00,,,0.00,Weather View 32 v70,2013-04-02 16:47:00,
2013-04-02 09:52:00,55.0,46.1,30.16,North,0,2.0,17.0,72,0.00,,,0.00,Weather View 32 v70,2013-04-02 16:52:00,
2013-04-02 09:57:00,55.1,46.2,30.17,West,275,4.0,17.0,72,0.00,,,0.00,Weather View 32 v70,2013-04-02 16:57:00,
2013-04-02 10:02:00,55.3,46.0,30.16,West,266,4.0,17.0,71,0.00,,,0.00,Weather View 32 v70,2013-04-02 17:02:00,
2013-04-02 10:07:00,55.7,46.0,30.16,West,279,1.0,17.0,70,0.00,,,0.00,Weather View 32 v70,2013-04-02 17:07:00,
2013-04-02 10:12:00,56.5,46.4,30.16,West,279,5.0,17.0,69,0.00,,,0.00,Weather View 32 v70,2013-04-02 17:12:00,
2013-04-02 10:17:00,57.3,46.8,30.16,WNW,297,7.0,17.0,68,0.00,,,0.00,Weather View 32 v70,2013-04-02 17:17:00,
2013-04-02 10:22:00,57.5,46.2,30.16,WNW,287,11.0,17.0,66,0.00,,,0.00,Weather View 32 v70,2013-04-02 17:22:00,
2013-04-02 10:27:00,57.6,46.3,30.16,West,274,6.0,17.0,66,0.00,,,0.00,Weather View 32 v70,2013-04-02 17:27:00,
2013-04-02 10:33:00,57.8,46.9,30.16,WSW,252,6.0,16.0,67,0.00,,,0.00,Weather View 32 v70,2013-04-02 17:33:00,
2013-04-02 10:40:00,58.1,46.8,30.15,WSW,240,12.0,16.0,66,0.00,,,0.00,Weather View 32 v70,2013-04-02 17:40:00,
2013-04-02 10:45:00,58.1,46.8,30.15,WSW,257,9.0,16.0,66,0.00,,,0.00,Weather View 32 v70,2013-04-02 17:45:00,
2013-04-02 10:50:00,58.3,47.0,30.15,WNW,294,5.0,16.0,66,0.00,,,0.00,Weather View 32 v70,2013-04-02 17:50:00,
2013-04-02 10:57:00,58.4,47.1,30.15,NW,304,6.0,16.0,66,0.00,,,0.00,Weather View 32 v70,2013-04-02 17:57:00,
2013-04-02 11:03:00,58.7,46.9,30.15,WNW,290,4.0,16.0,65,0.00,,,0.00,Weather View 32 v70,2013-04-02 18:03:00,
2013-04-02 11:08:00,58.7,46.9,30.15,WNW,292,9.0,16.0,65,0.00,,,0.00,Weather View 32 v70,2013-04-02 18:08:00,
2013-04-02 11:13:00,58.7,46.9,30.14,NW,308,5.0,16.0,65,0.00,,,0.00,Weather View 32 v70,2013-04-02 18:13:00,
2013-04-02 11:18:00,59.0,47.2,30.15,WNW,302,8.0,16.0,65,0.00,,,0.00,Weather View 32 v70,2013-04-02 18:18:00,
2013-04-02 11:23:00,58.9,46.7,30.14,West,270,7.0,16.0,64,0.00,,,0.00,Weather View 32 v70,2013-04-02 18:23:00,
2013-04-02 11:28:00,59.0,46.8,30.14,WNW,296,10.0,16.0,64,0.00,,,0.00,Weather View 32 v70,2013-04-02 18:28:00,
2013-04-02 11:33:00,59.3,47.1,30.14,WNW,288,12.0,16.0,64,0.00,,,0.00,Weather View 32 v70,2013-04-02 18:33:00,
2013-04-02 11:38:00,59.3,46.7,30.14,WNW,298,7.0,16.0,63,0.00,,,0.00,Weather View 32 v70,2013-04-02 18:38:00,
2013-04-02 11:43:00,59.5,47.3,30.14,WSW,241,8.0,16.0,64,0.00,,,0.00,Weather View 32 v70,2013-04-02 18:43:00,
2013-04-02 11:48:00,59.9,47.2,30.14,NW,305,6.0,16.0,63,0.00,,,0.00,Weather View 32 v70,2013-04-02 18:48:00,
2013-04-02 11:53:00,60.2,47.1,30.14,WNW,292,12.0,16.0,62,0.00,,,0.00,Weather View 32 v70,2013-04-02 18:53:00,
2013-04-02 11:58:00,60.2,46.7,30.14,WNW,297,10.0,16.0,61,0.00,,,0.00,Weather View 32 v70,2013-04-02 18:58:00,
2013-04-02 12:03:00,60.5,47.0,30.14,West,272,10.0,16.0,61,0.00,,,0.00,Weather View 32 v70,2013-04-02 19:03:00,
2013-04-02 12:08:00,60.7,46.7,30.14,WNW,300,5.0,17.0,60,0.00,,,0.00,Weather View 32 v70,2013-04-02 19:08:00,
2013-04-02 12:13:00,61.0,46.5,30.14,NW,324,11.0,17.0,59,0.00,,,0.00,Weather View 32 v70,2013-04-02 19:13:00,
2013-04-02 12:18:00,61.3,46.8,30.14,SW,236,7.0,17.0,59,0.00,,,0.00,Weather View 32 v70,2013-04-02 19:18:00,
2013-04-02 12:23:00,61.5,47.0,30.14,West,274,6.0,17.0,59,0.00,,,0.00,Weather View 32 v70,2013-04-02 19:23:00,
2013-04-02 12:28:00,61.8,47.7,30.14,WNW,294,16.0,17.0,60,0.00,,,0.00,Weather View 32 v70,2013-04-02 19:28:00,
2013-04-02 12:34:00,62.0,47.0,30.14,WNW,294,5.0,17.0,58,0.00,,,0.00,Weather View 32 v70,2013-04-02 19:34:00,
2013-04-02 12:39:00,62.0,47.0,30.14,West,271,4.0,17.0,58,0.00,,,0.00,Weather View 32 v70,2013-04-02 19:39:00,
2013-04-02 12:44:00,62.0,47.0,30.14,NW,315,4.0,17.0,58,0.00,,,0.00,Weather View 32 v70,2013-04-02 19:44:00,
2013-04-02 12:49:00,62.0,47.0,30.13,WSW,257,7.0,17.0,58,0.00,,,0.00,Weather View 32 v70,2013-04-02 19:49:00,
2013-04-02 12:54:00,62.4,47.4,30.13,West,277,11.0,17.0,58,0.00,,,0.00,Weather View 32 v70,2013-04-02 19:54:00,
2013-04-02 12:59:00,62.4,46.9,30.13,WNW,294,4.0,17.0,57,0.00,,,0.00,Weather View 32 v70,2013-04-02 19:59:00,
2013-04-02 15:40:00,65.6,45.3,30.13,NW,323,13.0,14.0,48,0.00,,,0.00,Weather View 32 v70,2013-04-02 22:40:00,
2013-04-02 15:45:00,65.8,46.1,30.13,WSW,248,8.0,16.0,49,0.00,,,0.00,Weather View 32 v70,2013-04-02 22:45:00,
2013-04-02 15:50:00,65.8,46.6,30.13,West,280,4.0,16.0,50,0.00,,,0.00,Weather View 32 v70,2013-04-02 22:50:00,
2013-04-02 15:55:00,66.3,45.4,30.13,WSW,253,10.0,16.0,47,0.00,,,0.00,Weather View 32 v70,2013-04-02 22:55:00,
2013-04-02 16:01:00,65.3,44.5,30.13,WSW,246,12.0,21.0,47,0.00,,,0.00,Weather View 32 v70,2013-04-02 23:01:00,
2013-04-02 16:06:00,65.2,45.5,30.13,WNW,300,8.0,21.0,49,0.00,,,0.00,Weather View 32 v70,2013-04-02 23:06:00,
2013-04-02 16:11:00,65.6,44.8,30.13,WNW,289,6.0,21.0,47,0.00,,,0.00,Weather View 32 v70,2013-04-02 23:11:00,
2013-04-02 16:16:00,65.2,45.0,30.13,WNW,296,2.0,21.0,48,0.00,,,0.00,Weather View 32 v70,2013-04-02 23:16:00,
2013-04-02 16:22:00,64.5,44.9,30.13,WNW,301,5.0,21.0,49,0.00,,,0.00,Weather View 32 v70,2013-04-02 23:22:00,
2013-04-02 16:27:00,64.8,45.1,30.13,West,279,3.0,21.0,49,0.00,,,0.00,Weather View 32 v70,2013-04-02 23:27:00,
2013-04-02 16:32:00,65.5,45.8,30.13,WNW,301,8.0,21.0,49,0.00,,,0.00,Weather View 32 v70,2013-04-02 23:32:00,
2013-04-02 16:37:00,65.3,45.1,30.13,WNW,302,6.0,21.0,48,0.00,,,0.00,Weather View 32 v70,2013-04-02 23:37:00,
2013-04-02 16:42:00,64.8,45.1,30.13,WNW,290,4.0,21.0,49,0.00,,,0.00,Weather View 32 v70,2013-04-02 23:42:00,
2013-04-02 16:47:00,64.5,44.9,30.13,SW,229,7.0,21.0,49,0.00,,,0.00,Weather View 32 v70,2013-04-02 23:47:00,
2013-04-02 16:52:00,63.9,44.8,30.13,West,271,5.0,21.0,50,0.00,,,0.00,Weather View 32 v70,2013-04-02 23:52:00,
2013-04-02 16:58:00,64.0,44.4,30.13,WSW,247,4.0,21.0,49,0.00,,,0.00,Weather View 32 v70,2013-04-02 23:58:00,
2013-04-02 17:03:00,63.2,44.2,30.13,WSW,257,4.0,18.0,50,0.00,,,0.00,Weather View 32 v70,2013-04-03 00:03:00,
2013-04-02 17:08:00,63.4,44.4,30.12,WNW,288,5.0,18.0,50,0.00,,,0.00,Weather View 32 v70,2013-04-03 00:08:00,
2013-04-02 17:13:00,63.9,44.8,30.12,WNW,296,7.0,18.0,50,0.00,,,0.00,Weather View 32 v70,2013-04-03 00:13:00,
2013-04-02 17:18:00,64.3,45.2,30.12,WNW,298,9.0,18.0,50,0.00,,,0.00,Weather View 32 v70,2013-04-03 00:18:00,
2013-04-02 17:23:00,64.2,45.1,30.12,WNW,286,2.0,18.0,50,0.00,,,0.00,Weather View 32 v70,2013-04-03 00:23:00,
2013-04-02 17:30:00,63.9,44.8,30.12,WNW,288,2.0,18.0,50,0.00,,,0.00,Weather View 32 v70,2013-04-03 00:30:00,
2013-04-02 17:35:00,63.4,44.4,30.12,West,267,3.0,15.0,50,0.00,,,0.00,Weather View 32 v70,2013-04-03 00:35:00,
2013-04-02 17:40:00,63.1,45.1,30.12,WNW,286,7.0,15.0,52,0.00,,,0.00,Weather View 32 v70,2013-04-03 00:40:00,
2013-04-02 17:45:00,63.1,45.1,30.11,WSW,249,5.0,15.0,52,0.00,,,0.00,Weather View 32 v70,2013-04-03 00:45:00,
2013-04-02 17:50:00,62.6,44.7,30.12,West,281,3.0,15.0,52,0.00,,,0.00,Weather View 32 v70,2013-04-03 00:50:00,
2013-04-02 17:55:00,62.4,45.0,30.12,WSW,254,12.0,15.0,53,0.00,,,0.00,Weather View 32 v70,2013-04-03 00:55:00,
2013-04-02 18:00:00,62.3,44.4,30.12,WSW,252,3.0,14.0,52,0.00,,,0.00,Weather View 32 v70,2013-04-03 01:00:00,
2013-04-02 18:05:00,62.1,45.2,30.12,West,273,1.0,14.0,54,0.00,,,0.00,Weather View 32 v70,2013-04-03 01:05:00,
2013-04-02 18:10:00,62.1,44.7,30.12,West,273,5.0,14.0,53,0.00,,,0.00,Weather View 32 v70,2013-04-03 01:10:00,
2013-04-02 18:15:00,62.0,45.1,30.12,WNW,297,5.0,14.0,54,0.00,,,0.00,Weather View 32 v70,2013-04-03 01:15:00,
2013-04-02 18:21:00,61.8,44.9,30.11,WSW,246,6.0,14.0,54,0.00,,,0.00,Weather View 32 v70,2013-04-03 01:21:00,
2013-04-02 18:27:00,61.6,44.8,30.11,WNW,285,3.0,14.0,54,0.00,,,0.00,Weather View 32 v70,2013-04-03 01:27:00,
2013-04-02 18:32:00,61.5,44.7,30.11,West,273,2.0,14.0,54,0.00,,,0.00,Weather View 32 v70,2013-04-03 01:32:00,
2013-04-02 18:37:00,61.5,45.1,30.11,WNW,283,2.0,14.0,55,0.00,,,0.00,Weather View 32 v70,2013-04-03 01:37:00,
2013-04-02 18:42:00,61.6,44.8,30.11,West,281,2.0,14.0,54,0.00,,,0.00,Weather View 32 v70,2013-04-03 01:42:00,
2013-04-02 18:47:00,62.0,45.1,30.11,West,281,0.0,14.0,54,0.00,,,0.00,Weather View 32 v70,2013-04-03 01:47:00,
2013-04-02 18:52:00,62.0,45.1,30.11,West,281,1.0,14.0,54,0.00,,,0.00,Weather View 32 v70,2013-04-03 01:52:00,
2013-04-02 18:57:00,61.8,44.9,30.11,SW,236,1.0,11.0,54,0.00,,,0.00,Weather View 32 v70,2013-04-03 01:57:00,
2013-04-02 19:02:00,61.6,45.2,30.10,West,271,1.0,11.0,55,0.00,,,0.00,Weather View 32 v70,2013-04-03 02:02:00,
2013-04-02 19:07:00,61.5,44.7,30.10,West,278,2.0,11.0,54,0.00,,,0.00,Weather View 32 v70,2013-04-03 02:07:00,
2013-04-02 19:12:00,61.3,45.0,30.10,West,278,1.0,9.0,55,0.00,,,0.00,Weather View 32 v70,2013-04-03 02:12:00,
2013-04-02 19:17:00,61.2,44.4,30.10,WNW,294,3.0,9.0,54,0.00,,,0.00,Weather View 32 v70,2013-04-03 02:17:00,
2013-04-02 19:23:00,61.0,44.7,30.10,WNW,298,2.0,9.0,55,0.00,,,0.00,Weather View 32 v70,2013-04-03 02:23:00,
2013-04-02 19:28:00,60.7,44.9,30.10,WNW,289,0.0,6.0,56,0.00,,,0.00,Weather View 32 v70,2013-04-03 02:28:00,
2013-04-02 19:35:00,60.5,44.7,30.10,WNW,283,2.0,6.0,56,0.00,,,0.00,Weather View 32 v70,2013-04-03 02:35:00,
2013-04-02 19:40:00,60.5,44.7,30.11,WNW,283,0.0,6.0,56,0.00,,,0.00,Weather View 32 v70,2013-04-03 02:40:00,
2013-04-02 19:45:00,60.2,44.4,30.11,WNW,285,1.0,6.0,56,0.00,,,0.00,Weather View 32 v70,2013-04-03 02:45:00,
2013-04-02 19:50:00,60.1,44.8,30.11,WNW,285,2.0,6.0,57,0.00,,,0.00,Weather View 32 v70,2013-04-03 02:50:00,
2013-04-02 19:55:00,59.9,44.6,30.11,WNW,285,0.0,6.0,57,0.00,,,0.00,Weather View 32 v70,2013-04-03 02:55:00,
2013-04-02 20:00:00,59.6,44.8,30.11,WNW,283,2.0,6.0,58,0.00,,,0.00,Weather View 32 v70,2013-04-03 03:00:00,
2013-04-02 20:05:00,59.6,44.8,30.11,West,274,0.0,6.0,58,0.00,,,0.00,Weather View 32 v70,2013-04-03 03:05:00,
2013-04-02 20:10:00,59.3,44.5,30.12,West,273,3.0,6.0,58,0.00,,,0.00,Weather View 32 v70,2013-04-03 03:10:00,
2013-04-02 20:15:00,59.3,44.9,30.12,West,273,2.0,6.0,59,0.00,,,0.00,Weather View 32 v70,2013-04-03 03:15:00,
2013-04-02 20:20:00,59.2,44.8,30.12,West,269,4.0,7.0,59,0.00,,,0.00,Weather View 32 v70,2013-04-03 03:20:00,
2013-04-02 20:25:00,59.0,45.1,30.12,West,269,1.0,7.0,60,0.00,,,0.00,Weather View 32 v70,2013-04-03 03:25:00,
2013-04-02 20:30:00,58.7,44.8,30.12,West,270,3.0,7.0,60,0.00,,,0.00,Weather View 32 v70,2013-04-03 03:30:00,
2013-04-02 20:35:00,58.6,45.2,30.12,West,277,2.0,7.0,61,0.00,,,0.00,Weather View 32 v70,2013-04-03 03:35:00,
2013-04-02 20:40:00,58.6,45.2,30.12,WNW,286,1.0,7.0,61,0.00,,,0.00,Weather View 32 v70,2013-04-03 03:40:00,
2013-04-02 20:45:00,58.4,45.0,30.12,WNW,284,1.0,7.0,61,0.00,,,0.00,Weather View 32 v70,2013-04-03 03:45:00,
2013-04-02 20:50:00,58.4,45.0,30.13,WNW,290,3.0,7.0,61,0.00,,,0.00,Weather View 32 v70,2013-04-03 03:50:00,
2013-04-02 20:55:00,58.4,45.0,30.13,WNW,285,1.0,7.0,61,0.00,,,0.00,Weather View 32 v70,2013-04-03 03:55:00,
2013-04-02 21:00:00,58.3,44.9,30.13,West,261,4.0,7.0,61,0.00,,,0.00,Weather View 32 v70,2013-04-03 04:00:00,
2013-04-02 21:05:00,58.3,45.3,30.13,West,262,0.0,7.0,62,0.00,,,0.00,Weather View 32 v70,2013-04-03 04:05:00,
2013-04-02 21:10:00,58.1,45.1,30.13,West,277,3.0,7.0,62,0.00,,,0.00,Weather View 32 v70,2013-04-03 04:10:00,
2013-04-02 21:15:00,58.0,45.0,30.13,West,278,2.0,7.0,62,0.00,,,0.00,Weather View 32 v70,2013-04-03 04:15:00,
2013-04-02 21:20:00,58.0,45.0,30.13,West,278,1.0,7.0,62,0.00,,,0.00,Weather View 32 v70,2013-04-03 04:20:00,
2013-04-02 21:25:00,57.8,44.8,30.13,West,278,0.0,7.0,62,0.00,,,0.00,Weather View 32 v70,2013-04-03 04:25:00,
2013-04-02 21:30:00,57.5,45.0,30.13,West,278,0.0,7.0,63,0.00,,,0.00,Weather View 32 v70,2013-04-03 04:30:00,
2013-04-02 21:35:00,57.0,44.9,30.13,West,278,0.0,7.0,64,0.00,,,0.00,Weather View 32 v70,2013-04-03 04:35:00,
2013-04-02 21:40:00,56.7,44.6,30.12,West,278,0.0,7.0,64,0.00,,,0.00,Weather View 32 v70,2013-04-03 04:40:00,
2013-04-02 21:45:00,56.3,44.7,30.12,West,278,0.0,7.0,65,0.00,,,0.00,Weather View 32 v70,2013-04-03 04:45:00,
2013-04-02 21:50:00,56.0,45.2,30.12,West,278,1.0,7.0,67,0.00,,,0.00,Weather View 32 v70,2013-04-03 04:50:00,
2013-04-02 21:55:00,55.6,45.2,30.13,West,278,0.0,6.0,68,0.00,,,0.00,Weather View 32 v70,2013-04-03 04:55:00,
2013-04-02 22:00:00,55.3,45.3,30.13,West,278,0.0,5.0,69,0.00,,,0.00,Weather View 32 v70,2013-04-03 05:00:00,
2013-04-02 22:05:00,55.0,45.4,30.12,West,278,0.0,5.0,70,0.00,,,0.00,Weather View 32 v70,2013-04-03 05:05:00,
2013-04-02 22:10:00,54.8,45.2,30.13,West,278,0.0,5.0,70,0.00,,,0.00,Weather View 32 v70,2013-04-03 05:10:00,
2013-04-02 22:15:00,54.7,45.5,30.12,West,279,1.0,5.0,71,0.00,,,0.00,Weather View 32 v70,2013-04-03 05:15:00,
2013-04-02 22:20:00,54.5,45.6,30.12,WNW,288,2.0,6.0,72,0.00,,,0.00,Weather View 32 v70,2013-04-03 05:20:00,
2013-04-02 22:25:00,54.5,46.0,30.12,WNW,290,3.0,6.0,73,0.00,,,0.00,Weather View 32 v70,2013-04-03 05:25:00,
2013-04-02 22:30:00,54.7,46.2,30.12,West,266,2.0,8.0,73,0.00,,,0.00,Weather View 32 v70,2013-04-03 05:30:00,
2013-04-02 22:35:00,54.5,46.0,30.12,WNW,286,4.0,8.0,73,0.00,,,0.00,Weather View 32 v70,2013-04-03 05:35:00,
2013-04-02 22:40:00,54.5,46.0,30.12,WNW,292,3.0,8.0,73,0.00,,,0.00,Weather View 32 v70,2013-04-03 05:40:00,
2013-04-02 22:45:00,54.5,46.4,30.12,WNW,295,2.0,8.0,74,0.00,,,0.00,Weather View 32 v70,2013-04-03 05:45:00,
2013-04-02 22:50:00,54.4,46.3,30.12,WNW,284,3.0,8.0,74,0.00,,,0.00,Weather View 32 v70,2013-04-03 05:50:00,
2013-04-02 22:55:00,54.4,46.3,30.13,WNW,296,4.0,8.0,74,0.00,,,0.00,Weather View 32 v70,2013-04-03 05:55:00,
2013-04-02 23:00:00,54.2,46.1,30.13,WNW,294,2.0,8.0,74,0.00,,,0.00,Weather View 32 v70,2013-04-03 06:00:00,
2013-04-02 23:05:00,54.1,46.3,30.13,WNW,295,3.0,8.0,75,0.00,,,0.00,Weather View 32 v70,2013-04-03 06:05:00,
2013-04-02 23:15:00,53.5,46.1,30.13,WNW,284,1.0,8.0,76,0.00,,,0.00,Weather View 32 v70,2013-04-03 06:15:00,
2013-04-02 23:20:00,53.3,46.3,30.13,WNW,284,2.0,8.0,77,0.00,,,0.00,Weather View 32 v70,2013-04-03 06:20:00,
2013-04-02 23:25:00,53.1,46.1,30.13,WNW,287,6.0,8.0,77,0.00,,,0.00,Weather View 32 v70,2013-04-03 06:25:00,
2013-04-02 23:30:00,52.9,45.9,30.13,WNW,300,2.0,7.0,77,0.00,,,0.00,Weather View 32 v70,2013-04-03 06:30:00,
2013-04-02 23:35:00,52.8,46.1,30.13,WNW,299,3.0,7.0,78,0.00,,,0.00,Weather View 32 v70,2013-04-03 06:35:00,
2013-04-02 23:40:00,52.8,46.1,30.13,WNW,286,1.0,7.0,78,0.00,,,0.00,Weather View 32 v70,2013-04-03 06:40:00,
2013-04-02 23:45:00,52.8,46.1,30.13,WNW,298,2.0,7.0,78,0.00,,,0.00,Weather View 32 v70,2013-04-03 06:45:00,
2013-04-02 23:50:00,52.9,45.9,30.13,WNW,290,2.0,8.0,77,0.00,,,0.00,Weather View 32 v70,2013-04-03 06:50:00,
2013-04-02 23:55:00,53.1,46.1,30.13,WNW,291,2.0,8.0,77,0.00,,,0.00,Weather View 32 v70,2013-04-03 06:55:00,